Terug naar catalogus

QIANFAN-162

ActiefCommunicatiePO
NORAD 69121·PAYLOAD·🇨🇳 China

Gelanceerd May 17, 2026 vanaf Wenchang Space Launch Site

Loading…

Volgende Passages (komende 24 uur)

TLE

VersSource: Space-Track

Epoch: Sep 14, 2026, 14:05 UTC

1 69121U 26108T   26257.58686143  .00000099  00000-0  13448-3 0  9990
2 69121  89.0191  13.0461 0002161 100.0253 260.1142 13.51022062 16549

Volg QIANFAN-162 in realtime met AllMySat

Download on the App Store